Погода в Буготаке

Россия / Новосибирская область     55°08′48″N   83°48′18″E
темп.,
°C
ветер,
м/с
пор.,
м/с
влажн.,
%
обл.,
%
осадки,
мм/ч
давл.,
гПа
погр.,
м
14 августа, вс
вс1401:00+14юз369332 0.3 1005109
04:00+13ююз4118922 0.0 1004188
07:00+14ююз5138799 0.3 1003355
10:00+15юз7149066 1.6 1002840
13:00+20з10135240 2.3 10031951
16:00+18з10135169 0.1 10051738
19:00+18з8126170 0.2 10051494
22:00+12з511915 0.4 1007393
15 августа, пн
пн1501:00+10зюз511962 0.4 1007338
04:00+9зюз5119848 0.0 1007342
07:00+9з61093100 0.0 1008488
10:00+10з6986100 0.1 1009807
13:00+17з9114181 0.1 10092162
16:00+15зсз7134598 0.0 10092123
19:00+12зсз71250100 0.1 10111478
22:00+11з6106098 0.0 1011901
16 августа, вт
вт1601:00+7з5117782 0.0 1011299
04:00+8з51076100 0.0 1011431
07:00+7з4980100 0.0 1012417
10:00+10з6759100 0.0 1013978
13:00+12зсз6651100 0.0 10131546
16:00+12зсз5753100 0.0 10131291
19:00+12сз4554100 0.0 10131200
22:00+10зсз2364100 0.0 101471
17 августа, ср
ср1701:00+9зюз2263100 0.0 101323
04:00+6юз227575 0.0 101218
07:00+9ююз2463100 0.0 1012116
10:00+13ююз3448100 0.0 1011642
13:00+15юз3239100 0.1 10092138
16:00+15ю1239100 0.0 10091746
19:00+15зсз2243100 0.0 10091459
22:00+9ссз61093100 0.1 1010374
18 августа, чт
чт1801:00+8ссз5897100 1.0 1010323
04:00+8сз3698100 1.5 1010366
07:00+8сз3598100 2.7 1011350
10:00+8сз4596100 0.6 1012394
13:00+8зсз4695100 1.1 1014371
16:00+12ссз3566100 0.1 10141049
19:00+13сз245893 0.4 10141109
22:00+8зсз00786 0.0 101510